Weather History for Benson, MN

Change the Weather History Date:

Saturday, October 6, 2012

  Actual Average Record
Temperature  
Mean Temperature 32 °F -  
Max Temperature 44 °F 61 °F 89 °F (1993)
Min Temperature 21 °F 38 °F 17 °F (2001)
Degree Days  
Heating Degree Days 32    
Moisture  
Dew Point 25 °F    
Average Humidity 68    
Maximum Humidity 86    
Minimum Humidity 42    
Precipitation  
Precipitation 0.00 in - - ()
Sea Level Pressure  
Sea Level Pressure 30.28 in    
Wind  
Wind Speed 12 mph (NNW)    
Max Wind Speed 17 mph    
Max Gust Speed 23 mph    
Visibility 10 miles    
Events      
Averages and records for this station are not official NWS values.
T = Trace of Precipitation, MM = Missing Value Source: NWS Daily Summary

Daily Weather History Graph

Daily Weather History Graph

Search for Another Location

Airport:

Trip Planner

Search our weather history database for the weather conditions in past years. The results will help you decide how hot, cold, wet, or windy it might be!

Date:

Astronomy

Oct. 06, 2012 Rise Set
Actual Time 7:27 AM CDT 6:52 PM CDT
Civil Twilight 6:58 AM CDT 7:22 PM CDT
Nautical Twilight 6:24 AM CDT 7:56 PM CDT
Astronomical Twilight 5:49 AM CDT 8:30 PM CDT
Moon 10:56 PM CDT (10/6) 1:35 PM CDT (10/6)
Length of Visible Light 12h 23m
Length of Day
11h 24m
Waning Gibbous, 65% of the Moon is Illuminated
Oct 6
Waning Gibbous
Oct 8
Last Quarter
Oct 15
New
Oct 21
First Quarter
Oct 29
Full

Hourly Weather History & Observations

Time (CDT) Temp. Windchill Dew Point Humidity Pressure Visibility Wind Dir Wind Speed Gust Speed Precip Events Conditions
12:13 AM 33.8 °F 23.2 °F 28.4 °F 81% 30.23 in 10.0 mi NNW 17.3 mph 23.0 mph N/A   Mostly Cloudy
12:33 AM 33.8 °F 23.9 °F 28.4 °F 81% 30.23 in 10.0 mi North 15.0 mph 20.7 mph N/A   Overcast
12:52 AM 33.8 °F 23.9 °F 28.4 °F 81% 30.23 in 10.0 mi North 15.0 mph - N/A   Overcast
1:13 AM 35.6 °F 25.9 °F 28.4 °F 75% 30.23 in 10.0 mi North 16.1 mph 21.9 mph N/A   Overcast
1:33 AM 33.8 °F 24.8 °F 28.4 °F 81% 30.23 in 10.0 mi North 12.7 mph - N/A   Overcast
1:52 AM 33.8 °F 23.9 °F 28.4 °F 81% 30.23 in 10.0 mi North 15.0 mph - N/A   Overcast
2:13 AM 33.8 °F 24.3 °F 28.4 °F 81% 30.23 in 10.0 mi North 13.8 mph - N/A   Overcast
2:33 AM 33.8 °F 25.8 °F 28.4 °F 81% 30.24 in 10.0 mi North 10.4 mph - N/A   Mostly Cloudy
2:52 AM 33.8 °F 25.3 °F 28.4 °F 81% 30.24 in 10.0 mi North 11.5 mph - N/A   Overcast
3:13 AM 33.8 °F 25.8 °F 28.4 °F 81% 30.24 in 10.0 mi North 10.4 mph - N/A   Overcast
3:33 AM 33.8 °F 25.3 °F 28.4 °F 81% 30.24 in 10.0 mi North 11.5 mph 17.3 mph N/A   Overcast
3:52 AM 33.8 °F 25.3 °F 28.4 °F 81% 30.24 in 10.0 mi North 11.5 mph 19.6 mph N/A   Overcast
4:13 AM 33.8 °F 23.2 °F 28.4 °F 81% 30.24 in 10.0 mi North 17.3 mph 23.0 mph N/A   Overcast
4:32 AM 33.8 °F 23.9 °F 28.4 °F 81% 30.24 in 10.0 mi North 15.0 mph - N/A   Overcast
4:53 AM 33.8 °F 24.8 °F 28.4 °F 81% 30.25 in 10.0 mi North 12.7 mph 20.7 mph N/A   Overcast
5:13 AM 33.8 °F 25.3 °F 28.4 °F 81% 30.25 in 10.0 mi North 11.5 mph - N/A   Overcast
5:32 AM 33.8 °F 25.3 °F 28.4 °F 81% 30.26 in 10.0 mi North 11.5 mph 20.7 mph N/A   Overcast
5:53 AM 33.8 °F 24.8 °F 28.4 °F 81% 30.26 in 10.0 mi North 12.7 mph 17.3 mph N/A   Overcast
6:13 AM 33.8 °F 25.3 °F 28.4 °F 81% 30.26 in 10.0 mi North 11.5 mph 19.6 mph N/A   Overcast
6:32 AM 33.8 °F 25.3 °F 28.4 °F 81% 30.27 in 10.0 mi North 11.5 mph - N/A   Overcast
6:53 AM 33.8 °F 24.8 °F 28.4 °F 81% 30.28 in 10.0 mi North 12.7 mph - N/A   Overcast
7:13 AM 33.8 °F 24.8 °F 28.4 °F 81% 30.28 in 10.0 mi North 12.7 mph - N/A   Overcast
7:32 AM 33.8 °F 24.8 °F 28.4 °F 81% 30.29 in 10.0 mi North 12.7 mph 16.1 mph N/A   Overcast
7:53 AM 33.8 °F 24.8 °F 28.4 °F 81% 30.29 in 10.0 mi North 12.7 mph - N/A   Overcast
8:32 AM 33.8 °F 25.3 °F 28.4 °F 81% 30.31 in 10.0 mi North 11.5 mph - N/A   Overcast
8:53 AM 33.8 °F 24.8 °F 28.4 °F 81% 30.32 in 10.0 mi North 12.7 mph - N/A   Overcast
9:13 AM 33.8 °F 23.2 °F 28.4 °F 81% 30.32 in 10.0 mi North 17.3 mph - N/A   Overcast
9:32 AM 35.6 °F 25.9 °F 28.4 °F 75% 30.33 in 10.0 mi North 16.1 mph 20.7 mph N/A   Overcast
9:53 AM 35.6 °F 26.2 °F 26.6 °F 70% 30.34 in 10.0 mi North 15.0 mph - N/A   Overcast
10:13 AM 37.4 °F 28.5 °F 26.6 °F 65% 30.34 in 10.0 mi North 15.0 mph - N/A   Overcast
10:32 AM 37.4 °F 29.3 °F 26.6 °F 65% 30.34 in 10.0 mi North 12.7 mph 18.4 mph N/A   Overcast
10:53 AM 39.2 °F 30.5 °F 26.6 °F 61% 30.34 in 10.0 mi North 16.1 mph 20.7 mph N/A   Overcast
11:12 AM 39.2 °F 31.6 °F 26.6 °F 61% 30.34 in 10.0 mi North 12.7 mph - N/A   Overcast
11:33 AM 39.2 °F 32.0 °F 24.8 °F 56% 30.34 in 10.0 mi NNE 11.5 mph 17.3 mph N/A   Overcast
11:53 AM 37.4 °F 29.3 °F 24.8 °F 60% 30.34 in 10.0 mi North 12.7 mph - N/A   Overcast
12:12 PM 39.2 °F 31.6 °F 24.8 °F 56% 30.34 in 10.0 mi North 12.7 mph - N/A   Overcast
12:33 PM 39.2 °F 32.0 °F 24.8 °F 56% 30.34 in 10.0 mi North 11.5 mph - N/A   Overcast
12:53 PM 39.2 °F 32.0 °F 24.8 °F 56% 30.34 in 10.0 mi North 11.5 mph - N/A   Overcast
1:12 PM 39.2 °F 33.0 °F 24.8 °F 56% 30.33 in 10.0 mi NNE 9.2 mph 16.1 mph N/A   Overcast
1:33 PM 41.0 °F 35.2 °F 24.8 °F 53% 30.33 in 10.0 mi North 9.2 mph - N/A   Mostly Cloudy
1:52 PM 39.2 °F 32.5 °F 24.8 °F 56% 30.32 in 10.0 mi North 10.4 mph - N/A   Overcast
2:13 PM 41.0 °F 33.9 °F 24.8 °F 53% 30.32 in 10.0 mi NNW 12.7 mph 20.7 mph N/A   Overcast
2:33 PM 42.8 °F 37.5 °F 24.8 °F 49% 30.31 in 10.0 mi North 9.2 mph - N/A   Overcast
2:52 PM 42.8 °F 38.6 °F 24.8 °F 49% 30.30 in 10.0 mi North 6.9 mph 10.4 mph N/A   Overcast
3:13 PM 42.8 °F 37.0 °F 23.0 °F 46% 30.29 in 10.0 mi NNE 10.4 mph 17.3 mph N/A   Overcast
3:33 PM 42.8 °F 39.3 °F 23.0 °F 46% 30.29 in 10.0 mi NNE 5.8 mph - N/A   Overcast
3:52 PM 42.8 °F 37.5 °F 23.0 °F 46% 30.28 in 10.0 mi North 9.2 mph - N/A   Overcast
4:13 PM 44.6 °F 39.7 °F 24.8 °F 46% 30.28 in 10.0 mi North 9.2 mph 17.3 mph N/A   Mostly Cloudy
4:33 PM 41.0 °F 35.8 °F 23.0 °F 49% 30.27 in 10.0 mi North 8.1 mph - N/A   Mostly Cloudy
4:52 PM 44.6 °F 40.2 °F 23.0 °F 43% 30.27 in 10.0 mi North 8.1 mph - N/A   Mostly Cloudy
5:13 PM 42.8 °F 37.5 °F 21.2 °F 42% 30.27 in 10.0 mi North 9.2 mph - N/A   Scattered Clouds
5:32 PM 42.8 °F 38.6 °F 21.2 °F 42% 30.26 in 10.0 mi North 6.9 mph - N/A   Clear
5:53 PM 42.8 °F 38.6 °F 21.2 °F 42% 30.26 in 10.0 mi North 6.9 mph - N/A   Clear
6:13 PM 41.0 °F 35.8 °F 21.2 °F 45% 30.27 in 10.0 mi North 8.1 mph - N/A   Clear
6:32 PM 39.2 °F 35.9 °F 21.2 °F 49% 30.26 in 10.0 mi North 4.6 mph - N/A   Clear
6:53 PM 35.6 °F 30.7 °F 21.2 °F 56% 30.26 in 10.0 mi NNW 5.8 mph - N/A   Clear
7:13 PM 32.0 °F 27.5 °F 21.2 °F 64% 30.27 in 10.0 mi NNW 4.6 mph - N/A   Clear
7:32 PM 30.2 °F 26.7 °F 19.4 °F 64% 30.27 in 10.0 mi NNW 3.5 mph - N/A   Clear
7:53 PM 26.6 °F 21.2 °F 17.6 °F 69% 30.27 in 10.0 mi NNW 4.6 mph - N/A   Clear
8:12 PM 26.6 °F 21.2 °F 19.4 °F 74% 30.27 in 10.0 mi WNW 4.6 mph - N/A   Clear
8:32 PM 26.6 °F 21.2 °F 17.6 °F 69% 30.27 in 10.0 mi WNW 4.6 mph - N/A   Clear
8:53 PM 24.8 °F 19.1 °F 17.6 °F 74% 30.27 in 10.0 mi WNW 4.6 mph - N/A   Clear
9:12 PM 24.8 °F 20.5 °F 17.6 °F 74% 30.27 in 10.0 mi WNW 3.5 mph - N/A   Clear
9:32 PM 23.0 °F 18.4 °F 15.8 °F 74% 30.26 in 10.0 mi West 3.5 mph - N/A   Clear
9:53 PM 24.8 °F 20.5 °F 17.6 °F 74% 30.26 in 10.0 mi West 3.5 mph - N/A   Clear
10:12 PM 23.0 °F 18.4 °F 17.6 °F 80% 30.26 in 10.0 mi WSW 3.5 mph - N/A   Clear
10:33 PM 21.2 °F 16.4 °F 17.6 °F 86% 30.26 in 10.0 mi West 3.5 mph - N/A   Clear
10:53 PM 21.2 °F - 17.6 °F 86% 30.25 in 10.0 mi Calm Calm - N/A   Clear
11:12 PM 23.0 °F 18.4 °F 17.6 °F 80% 30.25 in 10.0 mi WSW 3.5 mph - N/A   Clear
11:33 PM 23.0 °F - 17.6 °F 80% 30.24 in 10.0 mi Calm Calm - N/A   Clear